Flag for Bolivia Weather past 2 weeks in Cochabamba, Bolivia

Now
50 °F

Clear.


Feels Like: 49 °F
Forecast: 47 / 76 °F
Wind: 3 mph from Northwest

Location: Cochabamba Airport

Current Time: May 30, 2015 at 1:13:07 AM

Latest Report: May 30, 2015 at 1:00 AM


Visibility: N/A

Pressure: 30.18 "Hg

Humidity: 58%

Dew point: 36 °F

Location of CochabambaLocation

Historic Weather in Cochabamba — Graph

°F

Cochabamba temperature yesterday

Maximum temperature yesterday: 81 °F (at 3:00 PM)
Minimum temperature yesterday: 43 °F (at 6:00 AM)
Average temperature yesterday: 60 °F

Past Weeks' High & Low Weather Summary

 TemperatureHumidityPressure
High81 °F (May 21, 5:00 PM)100% (May 27, 3:00 AM)30.48 "Hg (May 27, 3:00 AM)
Low37 °F (May 22, 7:00 AM)7% (May 22, 4:00 PM)30.04 "Hg (May 29, 4:00 PM)
Average60 °F49%30.28 "Hg
* Reported May 14 11:00 PM — May 29 11:00 PM, Cochabamba, Weather by CustomWeather, © 2015

Note: Actual official high and low records may vary slightly from our data, if they occured in-between our weather recording intervals... More about our weather records

Advertising

Cochabamba weather history for previous 24 hours

 ConditionsComfort  
Time TempWeatherWind HumidityBarometerVisibility
11:00 PM
Fri, May 29
54 °FClear.No wind58%30.18 "HgN/A
10:00 PM57 °FClear.No wind44%30.15 "HgN/A
9:00 PM61 °FClear.No wind42%30.12 "HgN/A
8:00 PM63 °FClear.No wind39%30.09 "HgN/A
7:00 PM66 °FClear.3 mph35%30.07 "HgN/A
6:00 PM73 °FClear.3 mph19%30.07 "HgN/A
5:00 PM81 °FClear.5 mph12%30.04 "HgN/A
4:00 PM81 °FClear.5 mph13%30.04 "HgN/A
3:00 PM81 °FClear.5 mph14%30.07 "HgN/A
2:00 PM79 °FClear.No wind16%30.09 "HgN/A
1:00 PM75 °FClear.No wind21%30.15 "HgN/A
12:00 PM70 °FClear.No wind35%30.21 "HgN/A
11:00 AM66 °FClear.No wind43%30.27 "HgN/A
10:00 AM61 °FClear.No wind55%30.30 "Hg6 mi
9:00 AM57 °FClear.No wind63%30.30 "Hg5 mi
8:00 AM48 °FClear.No wind76%30.27 "Hg4 mi
7:00 AM43 °FClear.No wind93%30.27 "Hg4 mi
6:00 AM43 °FClear.No wind93%30.24 "Hg5 mi
5:00 AM46 °FClear.No wind87%30.24 "HgN/A
4:00 AM46 °FClear.No wind82%30.24 "HgN/A
3:00 AM48 °FClear.No wind82%30.24 "HgN/A
2:00 AM48 °FClear.No wind82%30.24 "HgN/A
1:00 AM50 °FClear.No wind76%30.27 "HgN/A
Weather by CustomWeather, © 2015

See weather overviewHow to use our weather pages